www.pogodaiklimat.ru

Погода и климат >> Архив погоды >> Россия >> Бурятия >> Тунка


ПОГОДА в Тунке

  • Прогноз погоды в Тунке
  • Монитор погоды в Тунке

АРХИВ ПОГОДЫ в Тунке

Время (UTC), дата Ветер
(напр.,м/с)
 
Видим.   Явления Облачность Т
(С)
Тd
(С)
f
(%)
Тe
(С)
Тes
(С)
Комфортность P
(гПа)
Po
(гПа)
Тmin
(С)
Tmax
(С)
R
(мм)
R24
(мм)
S
(см)
03 13.08 СЗ 1 20 км слаб. ливневой дождь 9/6 1000 м
[Cb cap Ac As]
+12.2 +11.3 94 +12 +14 1011.3 928.7
06 13.08 СВ 1 50 км {ливн. осадки} 6/4 1000 м
[Cu Sc Ci fib]
+16.2 +7.9 58 +17 +26 1009.0 927.5
09 13.08 В 2 50 км 3/3 1000 м
[Cu Sc Ac trans]
+18.7 +6.8 46 +20 +24 1006.9 926.3
12 13.08 В 2 50 км 6/3 1000 м
[Sc Ac trans]
+16.9 +7.8 55 +17 +17 1007.3 926.2 +19.1 3
15 13.08 штиль 0 н/о 3/0
[Ac trans]
+10.7 +9.9 95 +10 +10 1009.8 926.8
18 13.08 СВ 1 н/о 1/0
[Ac trans]
+7.6 +7.4 99 +7 +7 1010.9 926.9
21 13.08 Ю 1 н/о туман на расстоянии ясно +5.8 +5.8 100 +4 +4 1011.1 926.5
00 14.08 штиль 0 2000 м туман на расстоянии 8/0
[Ac trans]
+7.3 +7.3 100 +6 +8 1011.0 926.9 +5.1
03 14.08 В 2 50 км 8/3 1000 м
[Cu Sc Ac trans Cs]
+14.6 +10.4 76 +14 +19 1008.0 926.3
06 14.08 В 4
{10}
20 км осадки на расстоянии 10/4 1000 м
[Cb cap Ac As]
+14.9 +7.7 62 +14 +15 1009.0 927.3
09 14.08 В 4
{10}
20 км осадки на расстоянии {ливн. осадки} 9/3 1000 м
[Cb cap Ac As]
+14.7 +9.5 71 +14 +15 1010.0 928.1
12 14.08 ЮВ 4 50 км в посл. час ливневой дождь 8/3 1000 м
[Cb cap Ac trans]
+12.7 +11.8 94 +11 +11 1012.5 930.0 +16.3 2
18 14.08 штиль 0 н/о 6/3 1000 м
[Sc Ac lent]
+8.7 +7.6 93 +8 +8 1018.1 933.9
00 15.08 ЮЗ 2 2000 м туман на расстоянии ясно +7.8 +7.8 100 +6 +8 1020.0 935.4 +6.1
06 15.08 ЮВ 1 50 км 5/3 1000 м
[Cu Sc Cs]
+17.8 +3.2 38 +19 +29 1013.8 932.4
12 15.08 В 2 50 км 9/3 1000 м
[Sc Ac As]
+17.0 +7.5 54 +17 +17 1012.1 930.6 +20.6
15 15.08 ЮЗ 1 н/о 3/3 1000 м
[Sc Ci fib]
+11.6 +7.4 75 +12 +12 1014.4 931.3
18 15.08 штиль 0 н/о 5/0
[Ac trans]
+9.3 +7.8 90 +8 +8 1015.4 931.5
21 15.08 ЮВ 1 н/о 3/0
[Ac trans]
+8.0 +7.4 96 +7 +7 1016.0 931.7
00 16.08 СЗ 1 2000 м туман на расстоянии ясно +8.8 +8.6 99 +8 +10 1016.1 932.1 +6.5
03 16.08 ЮЗ 1 50 км 1/1 1000 м
[Cu med, cong]
+15.6 +8.8 64 +16 +27 1012.8 930.9
06 16.08 В 2 50 км 4/1 1000 м
[Cu Sc Ci fib]
+20.8 +6.4 39 +22 +33 комфорт 1008.4 928.2
09 16.08 В 3 50 км 9/1 1000 м
[Cu Sc Ac trans Cs]
+22.0 +7.4 39 +23 +25 комфорт 1006.5 926.8
12 16.08 В 3 50 км 10/0
[Ac lent Cs]
+17.9 +5.1 43 +18 +18 1007.8 926.9 +22.6
15 16.08 В 3 н/о 10/0
[Ac trans Cs]
+13.1 +6.7 65 +12 +12 1009.3 927.0
18 16.08 штиль 0 н/о 10/0
[Ac As]
+10.7 +9.5 92 +10 +10 1009.8 926.8
21 16.08 С 1 н/о слаб. ливневой дождь 10/6 1000 м
[Cb cap Ac As]
+10.9 +10.5 97 +10 +10 1008.6 925.8
00 17.08 СВ 1 20 км осадки на расстоянии {ливн. осадки} 9/3 1000 м
[Cb cap Ac As]
+11.6 +11.0 96 +11 +12 1007.7 925.2 +10.7 3
03 17.08 В 1 20 км осадки на расстоянии 9/4 1000 м
[Cb cap Ac As]
+14.8 +11.7 82 +15 +18 1006.7 925.2
06 17.08 В 5 20 км осадки на расстоянии 8/4 1000 м
[Cb cap Ac As]
+17.2 +11.5 69 +17 +19 1005.7 924.9
09 17.08 В 3 20 км в посл. час ливневой дождь 9/5 1000 м
[Cb cap Ac As]
+15.3 +12.2 82 +15 +16 1008.0 926.5
12 17.08 ЮВ 2 20 км осадки на расстоянии {ливн. осадки} 10/4 1000 м
[Cb cap Ac As]
+15.0 +9.6 70 +15 +15 1009.8 928.0 +17.8 0.9
15 17.08 В 2 н/о осадки на расстоянии 9/3 1000 м
[Cb cap Ac As]
+13.0 +9.3 78 +12 +12 1012.2 929.7
18 17.08 ЮВ 1 н/о 9/0
[Ac trans Ci fib]
+11.2 +10.2 94 +11 +11 1013.6 930.5
21 17.08 ЮВ 1 н/о 9/0
[Ac As Cs]
+7.8 +7.8 100 +7 +7 1015.7 931.4
00 18.08 штиль 0 50 км 9/0
[Ac trans]
+9.8 +9.6 99 +9 +10 1015.4 931.7 +7.5
03 18.08 СЗ 1 50 км 8/4 1000 м
[Cu Sc Ac trans]
+15.5 +10.8 74 +16 +20 1013.3 931.4
12 18.08 В 2 50 км осадки на расстоянии 10/3 1000 м
[Cb cap Ac As]
+18.2 +10.4 60 +19 +19 1008.7 927.9 +22.1
00 19.08 В 1 10 км дождь 10/0
[As op]
+12.1 +11.9 99 +12 +12 1009.6 927.1 +12.1 8
12 19.08 штиль 0 20 км слаб. ливневой дождь 10/4 1000 м
[Cb cap Ac As]
+12.9 +10.6 86 +12 +12 1014.3 931.6 +14.4 12

 

Местоположение метеостанции Тунка (Бурятия, Россия): широта 51.73 долгота 102.50 высота над уровнем моря 721 м.

В архиве по умолчанию представлена погода в Тунке за последнюю неделю. Архивные данные за месяц целиком и за предыдущие месяцы, начиная с января 2011 года, Вы можете получить, выбрав интересующий диапазон дат из раскрывающегося списка и нажав кнопку "Ввод!".


*Определитесь, кто Вы:
робот инопланетянин человек

Внимание! Время в таблицах - всемирное. Для получения местного времени необходимо прибавить поправку, которая равна 8 ч.

Смотрите также архив погоды в соседних городах и на ближайших метеорологических станциях:

Погода в Кырене (Бурятия, Россия) (28 км)
Погода в Дабадах (Иркутская область, Россия) (43 км)
Погода в Хамар-Дабан (Иркутская область, Россия) (79 км)
Погода в Култуке (Иркутская область, Россия) (83 км)
Погода в Монды (Бурятия, Россия) (110 км)
Погода в Байкальске (Иркутская область, Россия) (111 км)
Погода в Санаге (Бурятия, Россия) (113 км)
Погода в Ангарск (Иркутская область, Россия) (122 км)
Погода в Иркутске (Иркутская область, Россия) (137 км)
Погода в Иркутске аэропорт (Иркутская область, Россия) (137 км)

Пояснения к столбцам:

Ветер - указаны скорость ветра в м/с - средняя за 10 мин, порывы в срок и между сроками (в фигурных скобках) и направление, откуда дует ветер: С - северный, СВ - северо-восточный, В - восточный, ЮВ - юго-восточный, Ю - южный, ЮЗ - юго-западный, З - западный, СЗ - северо-западный.
Видимость - горизонтальная дальность видимости в метрах или километрах. При видимости от 1 до 10 км при отсутствии осадков обычно наблюдается дымка, при ухудшении видимости до 1 км и менее - туман. В сухую погоду видимость может ухудшаться дымом, пылью или мглою.
Явления - указаны атмосферные явления, наблюдавшиеся в срок или в последний час перед сроком; фигурными скобками обозначены явления, наблюдавшиеся между сроками (за 1-3 часа до срока); квадратными скобками обозначены град или гололедные отложения с указанием их диаметра в мм.
Облачность - указаны через наклонную черту общая и нижняя облачность в баллах и высота нижней границы облаков в метрах; квадратными скобками обозначены формы облаков: Ci - перистые, Cs - перисто-слоистые, Cc - перисто-кучевые, Ac - высококучевые, As - высокослоистые, Sc - слоисто-кучевые, Ns - слоисто-дождевые, Cu - кучевые, Cb - кучево-дождевые. Подробнее классификацию облаков см. в Атласе облаков (PDF).
T - Температура воздуха - температура, измеренная на высоте 2 м над землей.
Td - Температура точки росы - температура, при понижении до которой содержащийся в воздухе водяной пар достигнет насыщения.
f - Относительная влажность воздуха - влажноcть воздуха, измеренная на высоте 2 м над землей.
Te - Эффективная температура - температура, которую ощущает одетый по сезону человек в тени. Характеристика душности погоды. При расчете учитывается влияние влажности воздуха и скорости ветра на теплоощущения человека.
Tes - Эффективная температура на солнце - температура, которую ощущает человек, с поправкой на солнечный нагрев. Характеристика знойности погоды. Зависит от высоты солнца над горизонтом, облачности и скорости ветра. Ночью, в пасмурную погоду, а также при ветре 12 м/с и более поправка равна нулю.
P - Атмосферное давление - приведенное к уровню моря атмосферное давление.
Po - Атмосферное давление - измеренное на уровне метеостанции атмосферное давление.
Tmin - Минимальная температура - минимум температуры воздуха на высоте 2 м над землей.
Tmax - Максимальная температура - максимум температуры воздуха на высоте 2 м над землей.
R - Количество осадков - Количество выпавших осадков за период времени, мм. При наведении курсора мыши на число - период времени, за который выпало указанное количество осадков.
R24 - Количество осадков - Количество выпавших осадков за 24 часа, мм.
S - Снежный покров - Высота снежного покрова, см. При наведении курсора мыши на число - состояние снежного покрова и степень покрытия местности в баллах.